Regional Weather Roundup
Issued by NWS

Home | Current Version | Previous Version | Graphics & Text | Print | Product List | Glossary On
Versions: 1 2 3 4 5 6 7 8 9 10 11 12 13 14 15 16 17 18 19 20 21 22 23 24 25 26 27 28 29 30 31 32 33 34 35 36 37 38 39 40 41 42 43 44 45 46 47 48 49 50
000
ASUS43 KOAX 241002
RWRNE

WEATHER ROUNDUP FOR NEBRASKA
NATIONAL WEATHER SERVICE OMAHA NE
500 AM CDT TUE OCT 24 2017

NOTES: SATELLITE DATA IS BEING USED TO AUGMENT CLOUD COVER ABOVE
       12000 FEET.
       "FAIR" INDICATES FEW OR NO CLOUDS BELOW 12,000 FEET WITH NO
       SIGNIFICANT WEATHER AND/OR OBSTRUCTIONS TO VISIBILITY.


NEZ001>004-019>022-054>056-241100-
NEBRASKA PANHANDLE

CITY           SKY/WX    TMP DP  RH WIND       PRES   REMARKS
SCOTTSBLUFF    CLEAR     33  19  56 NW12      30.50S WCI  24
ALLIANCE       CLEAR     33  19  56 NW14      30.46R WCI  23
CHADRON        CLEAR     36  19  50 NW13      30.48R WCI  27
GORDON         FAIR      33  23  67 W8        30.42F WCI  26
KIMBALL        CLEAR     34  20  57 NW12      30.50S WCI  25
SIDNEY         CLEAR     35  20  54 NW13      30.49R WCI  26
$$

NEZ057>060-069>072-079>082-241100-
SOUTHWEST NEBRASKA

CITY           SKY/WX    TMP DP  RH WIND       PRES   REMARKS
NORTH PLATTE   CLEAR     40  26  57 NW10      30.36R WCI  33
IMPERIAL       CLEAR     41  22  46 NW20G26   30.43R
LEXINGTON      CLEAR     46  27  47 NW18G26   30.31S
MCCOOK         CLEAR     40  25  55 NW15      30.37R WCI  32
OGALLALA       CLEAR     42  22  45 NW17      30.42S
$$

NEZ005>010-023>029-035>040-094-241100-
NORTH CENTRAL NEBRASKA

CITY           SKY/WX    TMP DP  RH WIND       PRES   REMARKS
VALENTINE      CLEAR     40  26  57 NW14      30.35R WCI  32
AINSWORTH      CLEAR     41  28  61 NW18G25   30.31S
BROKEN BOW     CLEAR     44  27  51 NW21G33   30.29R
O`NEILL        PTCLDY    40  32  72 NW20G26   30.24R WCI  31
ORD            CLEAR     43  30  60 NW21G30   30.24R
THEDFORD       CLEAR     41  27  57 NW15      30.36R
$$

NEZ041-046>049-061>064-073>077-083>087-241100-
SOUTH CENTRAL NEBRASKA

CITY           SKY/WX    TMP DP  RH WIND       PRES   REMARKS
GRAND ISLAND   CLEAR     45  30  55 NW25G35   30.22R
AURORA         CLEAR     46  29  52 N23G32    30.19R
HASTINGS       CLEAR     46  28  49 NW24G33   30.22S
HEBRON         PTCLDY    48  30  50 NW16G24   30.18R
HOLDREGE       CLEAR     46  28  50 N17G28    30.29R
KEARNEY        CLEAR     45  27  49 NW24G30   30.26S
YORK           PTCLDY    45  32  61 NW21G30   30.17R
$$

NEZ011>018-030>034-042>045-241100-
NORTHEAST NEBRASKA

CITY           SKY/WX    TMP DP  RH WIND       PRES   REMARKS
NORFOLK        CLEAR     42  29  59 NW24G36   30.14R
ALBION         CLEAR     44  31  60 N29G39    30.18R
BLAIR          CLEAR     44  31  60 NW21G30   30.03S
COLUMBUS       CLEAR     44  29  55 NW24G35   30.15R
FREMONT        CLEAR     44  31  59 NW18G31   30.08S
TEKAMAH        CLEAR     44  29  55 NW17G28   30.05S
WAYNE          CLEAR     42  25  51 NW28G37   30.10R
$$

NEZ050>053-065>068-078-088>093-241100-
SOUTHEAST NEBRASKA

CITY           SKY/WX    TMP DP  RH WIND       PRES   REMARKS
LINCOLN        CLEAR     47  29  49 MISG      30.12S
OMAHA EPPLEY   CLEAR     45  29  53 NW23G33   30.02F
BEATRICE       CLEAR     46  30  53 N24G33    30.13R
FALLS CITY     CLEAR     47  26  44 NW24G44   30.04R
NEBRASKA CITY  CLEAR     45  29  54 NW18G31   30.05R
PLATTSMOUTH    CLEAR     44  31  58 NW22G28   30.04S
$$

NEZ044-045-051>053-067-241100-
OMAHA AREA

CITY           SKY/WX    TMP DP  RH WIND       PRES   REMARKS
OMAHA EPPLEY   CLEAR     45  29  53 NW23G33   30.02F
BLAIR          CLEAR     44  31  60 NW21G30   30.03S
FREMONT        CLEAR     44  31  59 NW18G31   30.08S
MILLARD        CLEAR     46  31  54 NW15G24   30.05S
OFFUTT AFB     CLEAR     45  29  53 NW16G24   30.03S
PLATTSMOUTH    CLEAR     44  31  58 NW22G28   30.04S
WAHOO          FAIR      45  29  53 NW20G29   30.08F
$$




USA.gov is the U.S. government's official web portal to all federal, state and local government web resources and services.